{"data":{"norad_id":64900,"epoch":"2026-09-19T15:26:23.865792Z","epoch_age_seconds":92260,"freshness":"FRESH","line1":"1 64900U 25156B   26262.64333178  .00003014  00000+0  14231-3 0  9992","line2":"2 64900  97.4341 339.9786 0001270 115.4146 244.7221 15.20198673 63885","mean_motion":15.20198673,"eccentricity":0.000127,"inclination_deg":97.4341,"raan_deg":339.9786,"arg_perigee_deg":115.4146,"mean_anomaly_deg":244.7221,"bstar":0.00014231,"rev_number":6388,"period_min":94.724461057334,"perigee_km":504.36663899733,"apogee_km":506.11501696564,"semimajor_km":6883.3778279815,"source":"CELESTRAK","updated_at":"2026-09-20T09:00:33.982372Z"}}